Location: Montreal
(45.5000°N, 73.5833°W)
Time: 18:01:07
(UTC-04:00)

Envisat - Pass Details

Date: 16 October 2017
Orbit: 764 x 766 km, 98.2° (Epoch: 19 October)

Event Time Altitude Azimuth Distance (km) Brightness Sun altitude
Exits shadow 19:06:03 14° 78° (ENE) 2,009 4.5 -11.2°
Maximum altitude 19:07:28 16° 59° (ENE) 1,919 4.6 -11.4°
Drops below altitude 10° 19:10:28 10° 22° (NNE) 2,311 5.3 -11.9°
Sets 19:13:37 0° 2° (N) 3,242 6.2 -12.5°
